This demonstration page uses our WeatherBlox Daily Observations layout. Learn more.

Left ArrowRight Arrow

Hourly Observations for August 14, 2022

Temp ( °F °C ) Dew Point ( °F °C ) Humidity (%) Winds ( mph kmh ) Pressure ( in mb ) Visibility ( mi km ) Precip ( " mm )
12:53 am 00:53 Clear 83 28.3 55 12.8 38 38 ESE 8 13 29.87 1012 10 16 0.00 0.00
1:53 am 01:53 Clear 82 27.8 56 13.3 41 41 SE 7 11 29.87 1012 10 16 0.00 0.00
2:53 am 02:53 Clear 80 26.7 57 13.9 45 45 SE 7 11 29.87 1012 10 16 0.00 0.00
3:53 am 03:53 Clear 79 26.1 58 14.4 49 49 Calm 29.86 1011 10 16 0.00 0.00
4:53 am 04:53 Clear 77 25 59 15 54 54 ESE 7 11 29.86 1011 10 16 0.00 0.00
5:53 am 05:53 Clear 77 25 59 15 54 54 ESE 7 11 29.86 1011 10 16 0.00 0.00
6:53 am 06:53 Clear 75 23.9 59 15 57 57 ESE 6 9 29.88 1012 10 16 0.00 0.00
7:53 am 07:53 Sunny 76 24.4 59 15 56 56 ESE 7 11 29.88 1012 10 16 0.00 0.00
8:53 am 08:53 Sunny 80 26.7 60 15.6 51 51 ESE 8 13 29.89 1012 10 16 0.00 0.00
9:53 am 09:53 Sunny 86 30 58 14.4 39 39 SE 12 19 29.91 1013 10 16 0.00 0.00
10:53 am 10:53 Sunny 88 31.1 58 14.4 36 36 SE 8 13 29.90 1013 10 16 0.00 0.00
11:53 am 11:53 Sunny 91 32.8 59 15 34 34 SSW 6 9 29.89 1012 10 16 0.00 0.00
12:53 pm 12:53 Sunny 93 33.9 58 14.4 31 31 VRB 5 7 29.88 1012 10 16 0.00 0.00
1:53 pm 13:53 Mostly Cloudy 93 33.9 55 12.8 28 28 ESE 7 11 29.87 1012 10 16 0.00 0.00
2:53 pm 14:53 Mostly Cloudy 96 35.6 55 12.8 25 25 E 12 19 29.85 1011 10 16 0.00 0.00
3:53 pm 15:53 Sunny 96 35.6 55 12.8 25 25 E 8 13 29.82 1010 10 16 0.00 0.00
4:53 pm 16:53 Sunny 98 36.7 54 12.2 23 23 SSE 9 15 29.79 1009 10 16 0.00 0.00
5:32 pm 17:32 Mostly Cloudy 96 35.6 54 12.2 24 24 SSE 10 17 29.67 1005 10 16 0.00 0.00
5:53 pm 17:53 Partly Cloudy 97 36.1 54 12.2 24 24 E 8 13 29.77 1008 10 16 0.00 0.00
6:53 pm 18:53 Sunny 97 36.1 53 11.7 23 23 E 8 13 29.75 1008 10 16 0.00 0.00
7:53 pm 19:53 Sunny 96 35.6 52 11.1 23 23 ESE 10 17 29.74 1007 10 16 0.00 0.00
8:53 pm 20:53 Clear 93 33.9 53 11.7 26 26 E 10 17 29.75 1007 10 16 0.00 0.00
9:53 pm 21:53 Clear 91 32.8 54 12.2 29 29 ESE 9 15 29.76 1008 10 16 0.00 0.00
10:53 pm 22:53 Clear 88 31.1 54 12.2 31 31 ESE 9 15 29.78 1009 10 16 0.00 0.00
11:53 pm 23:53 Clear 88 31.1 53 11.7 30 30 ESE 13 20 29.79 1009 10 16 0.00 0.00

Powered by AerisWeather